EW8320 Weather Reports


Display with metric or nautical units.
time (UTC)temp
F
wind
direction
speed
MPH
gust
MPH
rain 1hr
in
rain 24hr
in
rain mn
in
humidity
%
barometer
mb
20260505002129 70 88 0.0 0.0 0.00 0.00 0.00 27 1011.6
20260505001128 71 97 0.0 0.0 0.00 0.00 0.00 27 1011.5
20260505000129 71 94 0.0 0.0 0.00 0.00 0.00 27 1011.6
20260504234227 71 98 0.0 0.0 0.00 0.00 0.00 27 1011.6
20260504234128 71 153 0.0 0.0 0.00 0.00 0.00 27 1011.5
20260504232231 71 92 0.0 2.0 0.00 0.00 0.00 26 1011.4
20260504231327 71 93 0.0 0.0 0.00 0.00 0.00 26 1011.5
20260504225330 71 98 0.0 0.0 0.00 0.00 0.00 27 1011.7
20260504224328 71 118 0.0 0.0 0.00 0.00 0.00 26 1011.9
20260504223428 73 105 0.0 0.0 0.00 0.00 0.00 27 1011.9
20260504222429 72 71 0.0 0.0 0.00 0.00 0.00 28 1012.0
20260504221427 73 100 0.0 0.0 0.00 0.00 0.00 29 1012.0
20260504220429 73 143 0.0 0.0 0.00 0.00 0.00 29 1012.1
20260504215428 73 145 0.0 0.0 0.00 0.00 0.00 30 1012.1
20260504214431 73 115 0.0 0.0 0.00 0.00 0.00 31 1012.3
20260504213528 68 80 0.0 0.0 0.00 0.00 0.00 31 1012.5
20260504212529 67 115 0.0 0.0 0.00 0.00 0.00 32 1012.5
20260504211531 69 121 0.0 0.0 0.00 0.00 0.00 31 1012.6
20260504210531 71 94 0.0 0.0 0.00 0.00 0.00 31 1012.8
20260504205530 73 79 0.0 0.0 0.00 0.00 0.00 31 1012.7
20260504203628 72 313 0.0 0.0 0.00 0.00 0.00 31 1012.8
20260504202627 72 4 0.0 0.0 0.00 0.00 0.00 31 1013.0
20260504201628 72 90 0.0 0.0 0.00 0.00 0.00 32 1013.0
20260504200630 72 110 0.0 0.0 0.00 0.00 0.00 32 1013.1
20260504195729 71 90 0.0 0.0 0.00 0.00 0.00 32 1013.1
20260504194828 72 157 0.0 0.0 0.00 0.00 0.00 34 1013.0
20260504193927 71 189 0.0 0.0 0.00 0.00 0.00 35 1013.4
20260504192928 70 69 0.0 0.0 0.00 0.00 0.00 37 1013.3
20260504190928 69 90 0.0 0.0 0.00 0.00 0.00 40 1013.4
20260504185929 69 109 0.0 0.0 0.00 0.00 0.00 44 1013.6
20260504185027 67 98 0.0 0.0 0.00 0.00 0.00 44 1013.7
20260504184030 67 89 0.0 0.0 0.00 0.00 0.00 44 1013.8
20260504183030 67 94 0.0 0.0 0.00 0.00 0.00 46 1013.9
20260504182929 67 105 0.0 0.0 0.00 0.00 0.00 46 1013.9
20260504181928 67 97 0.0 0.0 0.00 0.00 0.00 46 1014.0
20260504181028 67 118 0.0 0.0 0.00 0.00 0.00 46 1014.0
20260504180127 67 96 0.0 0.0 0.00 0.00 0.00 43 1013.9
20260504175130 67 46 0.0 0.0 0.00 0.00 0.00 43 1013.9
20260504174128 65 98 0.0 0.0 0.00 0.00 0.00 41 1013.9
20260504173227 65 48 0.0 0.0 0.00 0.00 0.00 46 1014.0
20260504172230 60 90 0.0 0.0 0.00 0.00 0.00 49 1014.0
20260504171229 60 90 0.0 0.0 0.00 0.00 0.00 53 1014.2
20260504170229 60 111 0.0 0.0 0.00 0.00 0.00 54 1014.2
20260504160227 44 270 0.0 0.0 0.00 0.00 0.00 46 1014.8
20260504150328 38 248 0.0 0.0 0.00 0.00 0.00 65 1014.9
20260504150228 38 261 0.0 0.0 0.00 0.00 0.00 65 1014.9
20260504141326 39 271 0.0 0.0 0.00 0.00 0.00 73 1015.0
20260504130436 35 247 0.0 0.0 0.00 0.00 0.00 80 1014.3
20260504110529 37 262 0.0 0.0 0.00 0.00 0.00 76 1014.8
20260504081829 46 261 0.0 0.0 0.00 0.00 0.00 71 1015.1
20260504080829 46 276 0.0 0.0 0.00 0.00 0.00 71 1015.2
20260504060123 50 274 0.0 0.0 0.00 0.00 0.00 66 1015.7
20260504050221 47 135 0.0 0.0 0.00 0.00 0.00 71 1015.8
20260504045222 52 45 0.0 0.0 0.00 0.00 0.00 82 1015.8
20260504044223 55 45 0.0 0.0 0.00 0.00 0.00 100 1015.8
20260504043223 58 45 0.0 0.0 0.00 0.00 0.00 100 1015.8
20260504040222 50 70 0.0 0.0 0.00 0.00 0.00 64 1015.5
20260504035221 52 360 0.0 0.0 0.00 0.00 0.00 66 1015.4
20260504034223 53 360 0.0 0.0 0.00 0.00 0.00 64 1015.5
20260504025424 59 315 0.0 0.0 0.00 0.00 0.00 54 1015.2
20260504024523 61 315 0.0 0.0 0.00 0.00 0.00 51 1015.1
20260504023521 62 315 0.0 0.0 0.00 0.00 0.00 48 1015.0
20260504022521 63 319 0.0 0.0 0.00 0.00 0.00 47 1015.0
20260504021521 64 255 0.0 0.0 0.00 0.00 0.00 46 1015.1
20260504020522 65 247 0.0 0.0 0.00 0.00 0.00 43 1014.8
20260504015524 66 247 0.0 0.0 0.00 0.00 0.00 40 1014.8
20260504014522 67 30 0.0 0.0 0.00 0.00 0.00 39 1014.7
20260504013522 68 22 0.0 0.0 0.00 0.00 0.00 40 1014.8
20260504013422 68 22 0.0 0.0 0.00 0.00 0.00 40 1014.9
20260504012423 68 47 0.0 0.0 0.00 0.00 0.00 41 1014.9
20260504011421 68 107 0.0 0.0 0.00 0.00 0.00 40 1014.8
20260504005422 68 326 0.0 0.0 0.00 0.00 0.00 38 1015.0
20260504004424 69 296 0.0 0.0 0.00 0.00 0.00 36 1015.0
20260504003421 71 112 0.0 0.0 0.00 0.00 0.00 34 1015.0